User: anonymous   Login
Location: Unspecified
(0.0000°N, 0.0000°E)
Time: 16:15:29
(UTC+00:00)
Language:

N. Korean satellite - Orbit

View from above orbital plane
View from above orbital plane
View from above satellite
View from above satellite

Ground track
Ground track

The orbit data is extracted from the following two-line orbital elements,

1 39026U 12072A   15089.06987103  .00013174  00000-0  61399-3 0  9996
2 39026 097.2926 123.3337 0048698 150.7687 209.6289 15.18929271126693
Epoch (UTC): 30 March 2015 01:40:36
Eccentricity: 0.0048698
inclination: 97.2926°
perigee height: 475 km
apogee height: 542 km
right ascension of ascending node: 123.3337°
argument of perigee: 150.7687°
revolutions per day: 15.18929271
mean anomaly at epoch: 209.6289°
orbit number at epoch: 12669

The dashed part of the orbit path shows where the satellite is in the earth's shadow,  

DLR